User: anonymous   Login
Location: Unspecified
(0.0000°N, 0.0000°E)
Time: 09:27:00
(UTC+00:00)
Language:

CUBEBUG 2 - Orbit

View from above orbital plane
View from above orbital plane
View from above satellite
View from above satellite

Ground track
Ground track

The orbit data is extracted from the following two-line orbital elements,

1 39440U 13066AA  17327.61027490 +.00000326 +00000-0 +52379-4 0  9996
2 39440 097.6155 349.9361 0081590 142.3006 218.3961 14.75562805214403
Epoch (UTC): 23 November 2017 14:38:47
Eccentricity: 0.0081590
inclination: 97.6155°
perigee height: 586 km
apogee height: 700 km
right ascension of ascending node: 349.9361°
argument of perigee: 142.3006°
revolutions per day: 14.75562805
mean anomaly at epoch: 218.3961°
orbit number at epoch: 21440

The dashed part of the orbit path shows where the satellite is in the earth's shadow,  

DLR